period_start,C,m1,H,J0,J1,J2,J3,J4,J5,JA,JB,JC,JD,JJ,JK,JN,#
2016-01-11 00:00:53,0.01,1.59,0.00,19.54,24.04,27.78,14.92,50.23,1027.87,2047.00,2869.97,2789.01,3054.82,599.73,609.41,23.98,0000 0000 0000 0000 000000
2016-01-11 00:05:54,0.03,1.59,0.00,19.57,24.05,27.77,14.89,50.20,1027.86,2047.00,2869.16,2788.84,3054.07,599.79,609.52,24.03,0000 0000 0000 0000 000000
2016-01-11 00:10:55,0.04,1.59,0.00,19.58,24.07,27.78,14.82,50.16,1027.85,2046.99,2868.68,2788.10,3053.76,599.55,609.42,24.08,0000 0000 0000 0000 000000
2016-01-11 00:15:56,0.02,1.59,0.00,19.59,24.07,27.79,15.02,50.27,1027.85,2046.98,2868.01,2787.91,3053.03,600.29,609.92,24.13,0000 0000 0000 0000 000000
2016-01-11 00:20:57,0.06,1.59,0.00,19.59,24.09,27.83,14.99,50.22,1027.83,2046.95,2867.33,2787.10,3052.41,600.03,609.66,24.18,0000 0000 0000 0000 000000
2016-01-11 00:25:59,0.00,1.59,0.00,19.61,24.10,27.82,15.03,50.26,1027.74,2046.87,2866.86,2786.98,3052.00,600.50,610.17,24.23,0000 0000 0000 0000 000000
2016-01-11 00:31:00,0.05,1.60,0.00,19.64,24.11,27.81,14.90,50.21,1027.52,2046.90,2866.07,2786.49,3051.65,599.81,609.19,24.28,0000 0000 0000 0000 000000
2016-01-11 00:36:01,0.00,1.60,0.00,19.63,24.12,27.83,14.89,50.20,1027.38,2046.70,2865.48,2785.99,3051.02,599.73,608.96,24.33,0000 0000 0000 0000 000000
2016-01-11 00:41:03,0.05,1.60,0.00,19.64,24.14,27.85,14.98,50.23,1027.43,2046.57,2864.94,2785.34,3050.38,600.13,609.39,24.38,0000 0000 0000 0000 000000
2016-01-11 00:46:04,-0.01,1.60,0.00,19.68,24.15,27.85,14.94,50.27,1027.41,2046.31,2864.09,2785.01,3050.00,600.04,609.30,24.43,0000 0000 0000 0000 000000
2016-01-11 00:51:05,0.04,1.60,0.00,19.68,24.16,27.93,14.98,50.18,1027.37,2046.14,2863.40,2784.53,3049.36,599.92,609.21,24.48,0000 0000 0000 0000 000000
2016-01-11 00:56:06,0.02,1.60,0.00,19.70,24.17,27.91,14.94,50.29,1027.37,2046.12,2862.80,2784.02,3048.99,600.21,609.30,24.53,0000 0000 0000 0000 000000
2016-01-11 01:01:08,0.03,1.60,0.00,19.72,24.18,27.93,14.83,50.15,1027.36,2046.07,2861.95,2783.80,3048.40,599.77,608.88,24.58,0000 0000 0000 0000 000000
2016-01-11 01:06:09,0.05,1.61,0.00,19.69,24.20,27.95,14.88,50.15,1027.36,2046.04,2860.85,2783.01,3047.62,599.89,609.00,24.63,0000 0000 0000 0000 000000
2016-01-11 01:11:10,0.04,1.61,0.00,19.72,24.21,27.96,14.93,50.16,1027.34,2046.02,2860.03,2782.22,3047.02,599.94,609.05,24.68,0000 0000 0000 0000 000000
2016-01-11 01:16:12,0.03,1.61,0.00,19.71,24.22,27.96,14.94,50.34,1027.17,2046.01,2859.43,2781.99,3046.54,600.01,609.01,24.73,0000 0000 0000 0000 000000
2016-01-11 01:21:13,0.04,1.61,0.00,19.72,24.24,27.95,14.87,50.07,1027.09,2046.01,2858.87,2781.30,3045.99,599.94,608.84,24.78,0000 0000 0000 0000 000000
2016-01-11 01:26:14,0.03,1.61,0.00,19.73,24.25,27.96,14.87,50.08,1026.91,2046.00,2858.05,2780.98,3045.36,599.78,608.63,24.83,0000 0000 0000 0000 000000
2016-01-11 01:31:16,0.05,1.62,0.00,19.77,24.26,27.97,15.05,50.23,1026.87,2046.00,2857.19,2780.26,3044.92,600.14,608.81,24.88,0000 0000 0000 0000 000000
2016-01-11 01:36:17,0.03,1.62,0.00,19.77,24.27,28.00,14.89,50.13,1026.87,2046.00,2856.48,2779.98,3044.09,599.91,608.61,24.93,0000 0000 0000 0000 000000
2016-01-11 01:41:18,0.04,1.62,0.00,19.79,24.29,28.03,14.98,50.18,1026.86,2046.00,2855.77,2779.31,3043.77,600.16,608.90,24.98,0000 0000 0000 0000 000000
2016-01-11 01:46:20,0.02,1.62,0.00,19.81,24.30,28.02,14.88,50.02,1026.76,2046.00,2855.03,2778.87,3043.05,600.16,608.62,25.03,0000 0000 0000 0000 000000
2016-01-11 01:51:21,0.05,1.63,0.00,19.83,24.32,28.05,14.90,50.17,1026.68,2046.00,2854.36,2778.10,3042.44,599.93,608.30,25.08,0000 0000 0000 0000 000000
2016-01-11 01:56:23,0.06,1.63,0.00,19.84,24.32,28.02,14.92,50.02,1026.48,2045.99,2853.21,2777.48,3041.58,600.16,608.47,25.13,0000 0000 0000 0000 000000
2016-01-11 02:01:25,0.12,1.63,0.00,19.87,24.34,28.06,14.90,50.12,1026.47,2045.98,2851.11,2776.12,3040.11,600.26,608.37,25.18,0000 0000 0000 0000 000000
2016-01-11 02:06:26,0.23,1.64,0.00,19.84,24.35,28.08,14.78,50.01,1026.45,2045.97,2847.26,2773.55,3037.23,599.84,608.16,25.23,0000 0000 0000 0000 000000
2016-01-11 02:11:28,0.36,1.66,0.00,19.85,24.37,28.10,14.98,50.08,1026.40,2045.94,2841.04,2769.40,3032.72,600.12,608.36,25.28,0000 0000 0000 0000 000000
2016-01-11 02:16:29,0.36,1.68,0.00,19.87,24.37,28.06,14.93,50.02,1026.38,2045.94,2834.13,2764.77,3027.72,600.25,608.35,25.33,0000 0000 0000 0000 000000
2016-01-11 02:21:30,0.38,1.70,0.00,19.91,24.39,28.08,14.81,50.02,1026.35,2045.83,2827.95,2760.00,3022.59,599.55,607.59,25.38,0000 0000 0000 0000 000000
2016-01-11 02:26:32,0.21,1.71,0.00,19.90,24.40,28.15,14.90,50.11,1026.30,2045.64,2823.42,2756.25,3018.53,599.85,607.91,25.43,0000 0000 0000 0000 000000
2016-01-11 02:31:33,0.16,1.72,0.00,19.91,24.42,28.17,14.98,50.22,1026.35,2045.51,2820.51,2753.84,3015.98,600.34,608.42,25.48,0000 0000 0000 0000 000000
2016-01-11 02:36:34,0.15,1.73,0.00,19.90,24.43,28.17,14.92,50.23,1026.36,2045.35,2817.74,2752.00,3013.88,599.98,607.77,25.53,0000 0000 0000 0000 000000
2016-01-11 02:41:36,0.18,1.74,0.00,19.91,24.45,28.16,14.88,50.15,1026.32,2045.11,2813.90,2749.47,3010.99,600.08,608.07,25.58,0000 0000 0000 0000 000000
2016-01-11 02:46:37,0.20,1.75,0.00,19.94,24.46,28.17,14.88,50.20,1026.37,2045.05,2809.98,2746.93,3008.24,599.82,607.86,25.63,0000 0000 0000 0000 000000
2016-01-11 02:51:38,0.27,1.76,0.00,19.94,24.47,28.22,14.85,50.11,1026.28,2045.02,2805.17,2743.77,3004.89,599.96,607.94,25.68,0000 0000 0000 0000 000000
2016-01-11 02:56:39,0.23,1.77,0.00,19.94,24.50,28.21,14.85,50.27,1026.18,2045.00,2800.71,2740.73,3001.58,600.34,608.31,25.73,0000 0000 0000 0000 000000
2016-01-11 03:01:41,0.17,1.78,0.00,19.97,24.50,28.21,14.85,50.06,1026.04,2045.00,2797.27,2738.38,2999.09,600.18,607.91,25.78,0000 0000 0000 0000 000000
2016-01-11 03:06:42,0.11,1.79,0.00,19.99,24.52,28.25,14.90,50.06,1026.07,2045.00,2794.98,2736.90,2997.39,600.15,607.91,25.83,0000 0000 0000 0000 000000
2016-01-11 03:11:43,0.09,1.79,0.00,20.01,24.53,28.23,14.88,50.17,1025.96,2045.00,2793.23,2735.80,2996.16,599.75,607.40,25.88,0000 0000 0000 0000 000000
2016-01-11 03:16:44,0.12,1.80,0.00,20.02,24.55,28.25,14.90,50.10,1025.94,2045.00,2791.31,2734.54,2994.76,599.66,607.33,25.93,0000 0000 0000 0000 000000
2016-01-11 03:21:46,0.09,1.80,0.00,20.04,24.56,28.30,14.81,50.11,1026.03,2044.99,2789.59,2733.43,2993.57,599.85,607.41,25.98,0000 0000 0000 0000 000000
2016-01-11 03:26:47,0.07,1.81,0.00,20.05,24.57,28.28,14.83,50.09,1026.34,2044.98,2788.07,2732.56,2992.61,599.97,607.76,26.03,0000 0000 0000 0000 000000
2016-01-11 03:31:48,0.07,1.81,0.00,20.06,24.59,28.29,14.86,50.13,1026.34,2044.97,2786.58,2731.63,2991.62,599.77,607.58,26.08,0000 0000 0000 0000 000000
2016-01-11 03:36:50,0.15,1.82,0.00,20.07,24.60,28.30,14.81,50.00,1026.36,2044.97,2784.02,2729.99,2989.71,599.63,607.46,26.13,0000 0000 0000 0000 000000
2016-01-11 03:41:51,0.23,1.83,0.00,20.10,24.62,28.33,14.96,50.11,1026.28,2044.96,2780.08,2727.33,2986.84,599.89,607.60,26.18,0000 0000 0000 0000 000000
2016-01-11 03:46:52,0.25,1.84,0.00,20.13,24.63,28.33,14.97,50.15,1026.38,2044.92,2775.64,2724.39,2983.65,600.20,607.86,26.23,0000 0000 0000 0000 000000
2016-01-11 03:51:53,0.34,1.86,0.00,20.11,24.65,28.35,14.80,50.02,1026.38,2044.62,2769.28,2720.24,2979.11,599.53,607.21,26.28,0000 0000 0000 0000 000000
2016-01-11 03:56:55,0.43,1.88,0.00,20.14,24.66,28.39,14.88,50.13,1026.38,2044.37,2761.36,2715.01,2973.41,600.01,607.63,26.33,0000 0000 0000 0000 000000
2016-01-11 04:01:56,0.46,1.90,0.00,20.16,24.67,28.39,14.88,50.19,1026.38,2044.23,2753.28,2709.56,2967.51,599.96,607.62,26.38,0000 0000 0000 0000 000000
2016-01-11 04:06:57,0.42,1.92,0.00,20.17,24.70,28.38,14.90,50.12,1026.38,2044.07,2745.45,2704.18,2961.73,599.84,607.32,26.43,0000 0000 0000 0000 000000
2016-01-11 04:11:58,0.45,1.94,0.00,20.16,24.71,28.42,15.02,50.15,1026.38,2044.02,2737.48,2698.95,2956.01,600.48,607.98,26.48,0000 0000 0000 0000 000000
2016-01-11 04:17:00,0.41,1.96,0.00,20.19,24.72,28.41,14.81,50.08,1026.37,2044.01,2730.12,2693.97,2950.61,599.63,607.16,26.53,0000 0000 0000 0000 000000
2016-01-11 04:22:01,0.38,1.98,0.00,20.22,24.74,28.46,14.79,50.11,1026.33,2044.00,2723.23,2689.32,2945.60,599.41,606.87,26.58,0000 0000 0000 0000 000000
2016-01-11 04:27:02,0.46,2.00,0.00,20.23,24.75,28.44,14.90,50.22,1026.34,2044.00,2715.78,2684.28,2940.16,599.92,607.35,26.63,0000 0000 0000 0000 000000
2016-01-11 04:32:04,0.44,2.03,0.00,20.23,24.77,28.48,14.95,50.23,1026.32,2044.00,2708.14,2678.96,2934.52,600.05,607.49,26.68,0000 0000 0000 0000 000000
2016-01-11 04:37:05,0.45,2.05,0.00,20.24,24.78,28.50,14.96,50.47,1026.25,2044.00,2700.26,2673.76,2928.88,600.27,607.64,26.73,0000 0000 0000 0000 000000
2016-01-11 04:42:06,0.38,2.07,0.00,20.25,24.80,28.51,14.87,50.52,1026.01,2043.98,2693.24,2668.96,2923.68,600.22,607.34,26.78,0000 0000 0000 0000 000000
2016-01-11 04:47:08,0.33,2.09,0.00,20.29,24.82,28.50,14.90,50.48,1025.91,2043.98,2687.45,2665.13,2919.49,600.01,607.05,26.83,0000 0000 0000 0000 000000
2016-01-11 04:52:09,0.32,2.10,0.00,20.29,24.82,28.57,14.89,50.52,1025.90,2043.96,2681.94,2661.57,2915.55,600.11,607.10,26.88,0000 0000 0000 0000 000000
2016-01-11 04:57:10,0.36,2.12,0.00,20.30,24.85,28.56,14.91,50.38,1025.90,2043.94,2675.40,2657.38,2910.95,600.22,607.31,26.93,0000 0000 0000 0000 000000
2016-01-11 05:02:11,0.23,2.14,0.00,20.33,24.86,28.57,14.86,50.35,1025.90,2043.87,2671.06,2654.57,2907.86,599.96,606.83,26.98,0000 0000 0000 0000 000000
2016-01-11 05:07:13,0.38,2.15,0.00,20.37,24.87,28.61,14.90,50.30,1025.90,2043.56,2664.44,2650.34,2903.22,600.03,606.93,27.03,0000 0000 0000 0000 000000
2016-01-11 05:12:14,0.29,2.17,0.00,20.39,24.90,28.61,14.97,50.40,1025.89,2043.24,2658.09,2646.27,2898.76,600.07,606.93,27.08,0000 0000 0000 0000 000000
2016-01-11 05:17:15,0.30,2.18,0.00,20.41,24.91,28.60,14.93,50.33,1025.83,2043.06,2652.87,2642.90,2895.11,600.23,607.04,27.13,0000 0000 0000 0000 000000
2016-01-11 05:22:17,0.44,2.20,0.00,20.40,24.93,28.67,14.83,50.42,1025.56,2043.01,2645.58,2638.23,2890.00,599.86,606.45,27.18,0000 0000 0000 0000 000000
2016-01-11 05:27:18,0.45,2.23,0.00,20.44,24.95,28.67,14.86,50.63,1025.81,2043.00,2637.88,2633.28,2884.61,600.06,606.77,27.23,0000 0000 0000 0000 000000
2016-01-11 05:32:20,0.45,2.25,0.00,20.46,24.96,28.64,14.89,50.61,1025.74,2043.00,2630.17,2628.33,2879.25,600.15,606.68,27.28,0000 0000 0000 0000 000000
2016-01-11 05:37:21,0.43,2.27,0.00,20.49,24.97,28.68,14.86,50.58,1025.80,2043.00,2622.72,2623.57,2874.10,600.01,606.70,27.33,0000 0000 0000 0000 000000
2016-01-11 05:42:22,0.45,2.29,0.00,20.51,24.99,28.70,14.80,50.53,1025.73,2042.99,2615.18,2618.82,2868.78,599.76,606.29,27.38,0000 0000 0000 0000 000000
2016-01-11 05:47:23,0.40,2.32,0.00,20.55,25.00,28.74,14.82,50.35,1025.79,2042.98,2608.17,2614.32,2863.88,599.91,606.29,27.43,0000 0000 0000 0000 000000
2016-01-11 05:52:25,0.32,2.34,0.00,20.57,25.02,28.75,14.93,50.41,1025.46,2042.79,2601.98,2610.19,2859.38,599.91,606.09,27.48,0000 0000 0000 0000 000000
2016-01-11 05:57:26,0.36,2.35,0.00,20.55,25.05,28.73,14.88,50.50,1025.46,2042.60,2596.22,2606.36,2855.16,600.33,606.56,27.53,0000 0000 0000 0000 000000
2016-01-11 06:02:28,0.26,2.37,0.00,20.57,25.06,28.77,14.84,50.33,1025.42,2042.46,2590.25,2603.08,2851.57,599.80,605.91,27.58,0000 0000 0000 0000 000000
2016-01-11 06:07:29,0.29,2.38,0.00,20.57,25.08,28.80,14.86,50.44,1025.42,2042.16,2585.04,2600.02,2848.19,600.13,606.34,27.63,0000 0000 0000 0000 000000
2016-01-11 06:12:31,0.23,2.40,0.00,20.61,25.10,28.78,14.88,50.66,1025.44,2042.05,2580.58,2597.16,2845.07,599.95,606.08,27.69,0000 0000 0000 0000 000000
2016-01-11 06:17:32,0.15,2.40,0.00,20.63,25.11,28.82,14.88,50.66,1025.55,2042.02,2577.75,2595.42,2843.02,600.02,606.10,27.74,0000 0000 0000 0000 000000
2016-01-11 06:22:33,0.14,2.41,0.00,20.63,25.13,28.79,14.83,50.49,1025.47,2042.00,2575.36,2593.97,2841.20,599.91,605.97,27.79,0000 0000 0000 0000 000000
2016-01-11 06:27:34,0.26,2.42,0.00,20.63,25.15,28.78,14.95,50.57,1025.44,2042.00,2571.63,2591.34,2838.34,600.40,606.43,27.84,0000 0000 0000 0000 000000
2016-01-11 06:32:35,0.27,2.44,0.00,20.65,25.17,28.85,14.98,50.46,1025.43,2042.00,2567.21,2588.38,2835.12,600.31,606.11,27.89,0000 0000 0000 0000 000000
2016-01-11 06:37:36,0.21,2.45,0.00,20.68,25.18,28.85,14.81,50.22,1025.45,2042.00,2563.40,2585.96,2832.41,599.97,605.90,27.94,0000 0000 0000 0000 000000
2016-01-11 06:42:38,0.17,2.46,0.00,20.72,25.20,28.89,14.85,50.38,1025.43,2041.98,2560.40,2584.07,2830.33,599.95,605.88,27.99,0000 0000 0000 0000 000000
2016-01-11 06:47:39,0.15,2.47,0.00,20.72,25.22,28.90,14.90,50.45,1025.41,2041.97,2557.82,2582.34,2828.40,600.23,606.14,28.04,0000 0000 0000 0000 000000
2016-01-11 06:52:40,0.07,2.47,0.00,20.72,25.24,28.93,14.80,50.50,1025.41,2041.91,2556.13,2581.16,2827.11,599.76,605.66,28.09,0000 0000 0000 0000 000000
2016-01-11 06:57:42,0.03,2.47,0.00,20.74,25.26,28.95,14.84,50.52,1025.41,2041.83,2555.15,2580.95,2826.56,599.84,605.70,28.14,0000 0000 0000 0000 000000
2016-01-11 07:02:43,0.01,2.47,0.00,20.78,25.27,28.95,14.83,50.56,1025.41,2041.49,2554.58,2580.25,2826.01,599.79,605.52,28.19,0000 0000 0000 0000 000000
2016-01-11 07:07:44,0.06,2.48,0.00,20.81,25.29,28.97,14.82,50.37,1025.42,2041.24,2553.33,2579.62,2825.24,600.03,605.83,28.24,0000 0000 0000 0000 000000
2016-01-11 07:12:45,0.06,2.48,0.00,20.83,25.31,29.00,14.96,50.40,1025.42,2041.09,2551.89,2578.82,2824.15,600.11,605.61,28.29,0000 0000 0000 0000 000000
2016-01-11 07:17:46,0.07,2.48,0.00,20.85,25.32,29.02,14.90,50.49,1025.41,2041.02,2550.60,2578.02,2823.21,600.25,605.91,28.34,0000 0000 0000 0000 000000
2016-01-11 07:22:48,0.07,2.49,0.00,20.89,25.35,29.06,14.95,50.53,1025.42,2041.01,2549.37,2577.20,2822.43,600.28,605.78,28.39,0000 0000 0000 0000 000000
2016-01-11 07:27:49,0.08,2.49,0.00,20.88,25.36,29.07,14.78,50.45,1025.42,2041.00,2547.92,2576.39,2821.45,600.19,605.78,28.44,0000 0000 0000 0000 000000
2016-01-11 07:32:51,0.04,2.49,0.00,20.88,25.38,29.07,14.88,50.27,1025.42,2041.00,2546.87,2575.84,2820.74,600.15,605.59,28.49,0000 0000 0000 0000 000000
2016-01-11 07:37:52,0.05,2.50,0.00,20.89,25.40,29.11,14.79,50.42,1025.42,2041.00,2546.07,2575.10,2820.03,599.95,605.38,28.54,0000 0000 0000 0000 000000
2016-01-11 07:42:53,0.03,2.50,0.00,20.92,25.42,29.11,14.78,50.44,1025.43,2040.99,2545.41,2574.98,2819.72,599.77,605.31,28.59,0000 0000 0000 0000 000000
2016-01-11 07:47:55,0.06,2.50,0.00,20.95,25.44,29.10,14.86,50.30,1025.47,2040.98,2544.53,2574.30,2819.03,600.01,605.50,28.64,0000 0000 0000 0000 000000
2016-01-11 07:52:56,0.01,2.50,0.00,20.96,25.45,29.14,14.83,50.48,1025.53,2040.97,2543.98,2574.01,2818.77,599.89,605.30,28.69,0000 0000 0000 0000 000000
2016-01-11 07:57:57,0.04,2.50,0.00,20.98,25.47,29.17,14.84,50.42,1025.55,2040.88,2543.14,2573.77,2818.05,599.88,605.32,28.74,0000 0000 0000 0000 000000
2016-01-11 08:02:58,0.03,2.51,0.00,21.00,25.49,29.21,14.82,50.43,1025.71,2040.65,2542.24,2573.05,2817.52,599.89,605.34,28.79,0000 0000 0000 0000 000000
2016-01-11 08:07:59,0.02,2.51,0.00,20.99,25.50,29.23,14.81,50.29,1025.73,2040.45,2541.40,2572.78,2816.99,599.72,605.12,28.84,0000 0000 0000 0000 000000
2016-01-11 08:13:01,0.03,2.51,0.00,21.03,25.52,29.19,14.88,50.48,1025.69,2040.12,2540.50,2572.04,2816.26,600.48,605.80,28.89,0000 0000 0000 0000 000000
2016-01-11 08:18:02,0.06,2.51,0.00,21.04,25.54,29.22,14.82,50.42,1025.76,2040.03,2539.50,2571.56,2815.75,599.92,605.32,28.94,0000 0000 0000 0000 000000
2016-01-11 08:23:03,0.11,2.51,0.00,21.04,25.56,29.25,14.79,50.35,1025.84,2040.04,2537.76,2570.57,2814.59,599.85,605.37,28.99,0000 0000 0000 0000 000000
2016-01-11 08:28:05,0.13,2.52,0.00,21.07,25.57,29.22,14.86,50.45,1025.68,2040.01,2535.38,2569.13,2813.00,599.93,605.19,29.04,0000 0000 0000 0000 000000
2016-01-11 08:33:06,0.15,2.53,0.00,21.09,25.59,29.27,14.88,50.44,1025.52,2040.00,2533.00,2567.64,2811.42,599.80,605.00,29.09,0000 0000 0000 0000 000000
2016-01-11 08:38:07,0.17,2.54,0.00,21.12,25.61,29.29,14.81,50.42,1025.45,2040.00,2530.28,2565.90,2809.54,599.84,604.91,29.14,0000 0000 0000 0000 000000
2016-01-11 08:43:09,0.11,2.54,0.00,21.12,25.62,29.31,14.81,50.38,1025.42,2040.00,2528.08,2564.55,2807.97,600.08,605.11,29.19,0000 0000 0000 0000 000000
2016-01-11 08:48:10,0.07,2.55,0.00,21.15,25.65,29.34,14.83,50.41,1025.42,2040.00,2526.60,2563.75,2806.99,600.00,604.91,29.24,0000 0000 0000 0000 000000
2016-01-11 08:53:11,0.06,2.55,0.00,21.16,25.66,29.33,14.85,50.33,1025.41,2039.98,2525.37,2563.01,2806.09,600.08,604.99,29.29,0000 0000 0000 0000 000000
2016-01-11 08:58:13,0.08,2.56,0.00,21.18,25.67,29.37,14.84,50.40,1025.42,2039.98,2524.26,2562.19,2805.22,600.03,605.01,29.34,0000 0000 0000 0000 000000
2016-01-11 09:03:14,0.06,2.56,0.00,21.19,25.70,29.40,14.82,50.38,1025.42,2039.91,2523.06,2561.49,2804.34,600.11,604.89,29.39,0000 0000 0000 0000 000000
2016-01-11 09:08:15,0.05,2.56,0.00,21.22,25.71,29.36,14.86,50.40,1025.41,2039.66,2521.70,2560.74,2803.48,600.21,605.11,29.44,0000 0000 0000 0000 000000
2016-01-11 09:13:16,0.04,2.56,0.00,21.23,25.74,29.40,14.81,50.35,1025.41,2039.34,2520.39,2559.82,2802.48,599.83,604.60,29.49,0000 0000 0000 0000 000000
2016-01-11 09:18:18,0.14,2.57,0.00,21.26,25.75,29.43,14.92,50.37,1025.41,2039.11,2517.97,2558.52,2800.70,600.49,605.23,29.54,0000 0000 0000 0000 000000
2016-01-11 09:23:19,0.18,2.58,0.00,21.27,25.77,29.44,14.83,50.40,1025.41,2039.06,2515.05,2556.69,2798.64,600.24,604.82,29.59,0000 0000 0000 0000 000000
2016-01-11 09:28:20,0.09,2.58,0.00,21.28,25.80,29.45,14.89,50.46,1025.40,2039.03,2513.12,2555.45,2797.19,600.19,604.85,29.64,0000 0000 0000 0000 000000
2016-01-11 09:33:22,0.08,2.59,0.00,21.32,25.81,29.50,14.86,50.51,1025.40,2039.00,2511.76,2554.60,2796.13,600.18,604.81,29.69,0000 0000 0000 0000 000000
2016-01-11 09:38:23,0.05,2.59,0.00,21.34,25.83,29.50,14.78,50.48,1025.38,2039.00,2510.74,2554.01,2795.41,599.97,604.60,29.74,0000 0000 0000 0000 000000
2016-01-11 09:43:24,0.05,2.59,0.00,21.36,25.85,29.53,14.83,50.60,1025.40,2039.00,2509.85,2553.48,2794.93,600.11,604.63,29.79,0000 0000 0000 0000 000000
2016-01-11 09:48:25,0.04,2.60,0.00,21.37,25.87,29.56,14.85,50.58,1025.40,2039.00,2509.03,2553.00,2794.11,600.14,604.64,29.84,0000 0000 0000 0000 000000
2016-01-11 09:53:26,0.04,2.60,0.00,21.39,25.90,29.59,14.87,50.63,1025.36,2038.98,2508.21,2552.73,2793.86,600.26,604.74,29.89,0000 0000 0000 0000 000000
2016-01-11 09:58:28,0.05,2.60,0.00,21.41,25.91,29.59,14.79,50.48,1025.39,2038.94,2507.48,2552.04,2793.06,599.69,604.13,29.94,0000 0000 0000 0000 000000
2016-01-11 10:03:29,0.02,2.60,0.00,21.42,25.93,29.62,14.83,50.47,1025.40,2038.87,2506.77,2551.91,2792.69,600.25,604.62,29.99,0000 0000 0000 0000 000000
2016-01-11 10:08:31,0.01,2.60,0.00,21.40,25.96,29.62,14.84,50.38,1025.40,2038.55,2506.00,2551.14,2792.03,600.24,604.72,30.04,0000 0000 0000 0000 000000
2016-01-11 10:13:32,0.02,2.61,0.00,21.46,25.97,29.66,14.87,50.38,1025.40,2038.29,2505.18,2550.99,2791.83,600.01,604.34,30.09,0000 0000 0000 0000 000000
2016-01-11 10:18:33,0.02,2.61,0.00,21.46,26.00,29.68,14.83,50.50,1025.40,2038.13,2504.71,2550.71,2791.09,599.97,604.25,30.14,0000 0000 0000 0000 000000
2016-01-11 10:23:35,0.03,2.61,0.00,21.47,26.02,29.70,14.81,50.45,1025.40,2038.03,2504.02,2550.06,2790.91,600.24,604.67,30.19,0000 0000 0000 0000 000000
2016-01-11 10:28:36,0.04,2.61,0.00,21.50,26.03,29.76,14.80,50.39,1025.40,2038.02,2503.34,2550.00,2790.19,600.27,604.55,30.24,0000 0000 0000 0000 000000
2016-01-11 10:33:37,0.03,2.61,0.00,21.53,26.05,29.73,14.80,50.48,1025.40,2038.00,2502.71,2549.66,2789.98,599.90,604.10,30.29,0000 0000 0000 0000 000000
2016-01-11 10:38:38,0.04,2.61,0.00,21.53,26.07,29.72,14.83,50.42,1025.41,2038.00,2501.92,2549.04,2789.27,600.38,604.57,30.34,0000 0000 0000 0000 000000
2016-01-11 10:43:40,0.09,2.62,0.00,21.54,26.09,29.76,14.75,50.33,1025.41,2038.00,2500.63,2548.45,2788.47,600.03,604.32,30.39,0000 0000 0000 0000 000000
2016-01-11 10:48:41,0.17,2.62,0.00,21.57,26.11,29.81,14.83,50.38,1025.42,2038.00,2497.94,2546.82,2786.65,600.51,604.63,30.44,0000 0000 0000 0000 000000
2016-01-11 10:53:43,0.28,2.64,0.00,21.57,26.12,29.83,14.80,50.47,1025.42,2037.98,2493.85,2544.15,2783.62,600.03,604.14,30.49,0000 0000 0000 0000 000000
2016-01-11 10:58:44,0.35,2.65,0.00,21.58,26.15,29.76,14.82,50.52,1025.41,2037.97,2488.54,2540.73,2779.79,600.04,604.23,30.54,0000 0000 0000 0000 000000
2016-01-11 11:03:45,0.34,2.67,0.00,21.61,26.16,29.83,14.78,50.46,1025.41,2037.88,2483.03,2537.18,2775.92,599.88,604.01,30.59,0000 0000 0000 0000 000000
2016-01-11 11:08:46,0.18,2.68,0.00,21.63,26.18,29.85,14.83,50.48,1025.33,2037.66,2478.87,2534.49,2772.95,600.22,604.09,30.64,0000 0000 0000 0000 000000
2016-01-11 11:13:47,0.23,2.69,0.00,21.65,26.20,29.86,14.74,50.41,1025.11,2037.34,2475.01,2532.07,2770.23,599.62,603.38,30.69,0000 0000 0000 0000 000000
2016-01-11 11:18:49,0.24,2.71,0.00,21.67,26.22,29.89,14.82,50.71,1025.19,2037.13,2470.77,2529.40,2767.21,600.16,604.01,30.74,0000 0000 0000 0000 000000
2016-01-11 11:23:50,0.22,2.72,0.00,21.67,26.23,29.88,14.81,50.53,1025.05,2037.05,2467.34,2527.13,2764.78,599.96,603.61,30.79,0000 0000 0000 0000 000000
2016-01-11 11:28:52,0.31,2.73,0.00,21.70,26.25,29.86,14.79,50.36,1024.95,2037.04,2462.57,2524.06,2761.37,600.08,603.66,30.84,0000 0000 0000 0000 000000
2016-01-11 11:33:53,0.17,2.74,0.00,21.73,26.27,29.89,14.73,50.56,1024.92,2037.00,2459.38,2521.92,2758.98,599.86,603.49,30.89,0000 0000 0000 0000 000000
2016-01-11 11:38:54,0.15,2.75,0.00,21.72,26.28,29.94,14.75,50.73,1024.92,2037.00,2456.69,2520.16,2757.08,599.69,603.22,30.94,0000 0000 0000 0000 000000
2016-01-11 11:43:55,0.05,2.75,0.00,21.75,26.30,29.95,14.83,50.64,1024.92,2037.00,2455.70,2519.70,2756.14,599.92,603.56,31.00,0000 0000 0000 0000 000000
2016-01-11 11:48:56,0.03,2.76,0.00,21.77,26.32,29.97,14.81,50.57,1024.94,2036.99,2455.02,2519.05,2755.89,600.02,603.44,31.05,0000 0000 0000 0000 000000
2016-01-11 11:53:58,0.09,2.76,0.00,21.76,26.33,29.98,14.77,50.43,1024.95,2036.97,2453.98,2518.55,2754.93,600.20,603.55,31.10,0000 0000 0000 0000 000000
2016-01-11 11:58:59,0.10,2.76,0.00,21.79,26.35,30.00,14.80,50.52,1025.10,2036.95,2452.33,2517.51,2753.75,600.18,603.63,31.15,0000 0000 0000 0000 000000
2016-01-11 12:04:01,0.10,2.77,0.00,21.82,26.36,30.02,14.83,50.56,1024.94,2036.80,2450.37,2516.20,2752.42,600.30,603.55,31.20,0000 0000 0000 0000 000000
2016-01-11 12:09:02,0.10,2.78,0.00,21.83,26.38,30.04,14.79,50.60,1024.92,2036.80,2448.51,2515.00,2751.09,599.85,603.10,31.25,0000 0000 0000 0000 000000
2016-01-11 12:14:03,0.05,2.78,0.00,21.84,26.40,30.06,14.80,50.48,1024.92,2036.44,2447.20,2514.09,2750.13,599.99,603.28,31.30,0000 0000 0000 0000 000000
2016-01-11 12:19:05,-0.02,2.78,0.00,21.84,26.41,30.06,14.79,50.63,1024.92,2036.16,2446.74,2513.99,2749.93,600.14,603.47,31.35,0000 0000 0000 0000 000000
2016-01-11 12:24:06,0.03,2.78,0.00,21.84,26.42,30.05,14.82,50.48,1024.92,2036.05,2446.04,2513.69,2749.21,599.90,603.10,31.40,0000 0000 0000 0000 000000
2016-01-11 12:29:07,0.03,2.78,0.00,21.87,26.45,30.09,14.80,50.52,1024.99,2036.00,2445.77,2513.07,2749.00,600.09,603.28,31.45,0000 0000 0000 0000 000000
2016-01-11 12:34:08,0.02,2.78,0.00,21.89,26.45,30.14,14.81,50.58,1025.31,2036.01,2445.03,2512.99,2748.76,599.90,603.39,31.50,0000 0000 0000 0000 000000
2016-01-11 12:39:09,0.07,2.79,0.00,21.90,26.47,30.11,14.78,50.58,1025.40,2036.00,2444.11,2512.18,2748.00,600.01,603.29,31.55,0000 0000 0000 0000 000000
2016-01-11 12:44:11,0.03,2.79,0.00,21.90,26.49,30.15,14.76,50.50,1025.40,2036.00,2443.59,2512.00,2747.40,599.72,603.15,31.60,0000 0000 0000 0000 000000
2016-01-11 12:49:12,0.01,2.79,0.00,21.92,26.50,30.17,14.73,50.51,1025.40,2036.00,2443.01,2511.95,2747.01,599.64,603.10,31.65,0000 0000 0000 0000 000000
2016-01-11 12:54:13,0.06,2.79,0.00,21.96,26.52,30.17,14.71,50.49,1025.40,2036.00,2442.36,2511.28,2746.71,599.95,603.32,31.70,0000 0000 0000 0000 000000